Showing default

LUCH (OLYMP), 40258

Orbit data source: Space-Track

LUCH (OLYMP), 40258 is a payload satellite owned by FSB (CIS) in GEO that was launched on Sat, 27 Sep 2014 UTC via a PROTON-M/BRIZ-M launch vehicle from the Tyuratam Missile And Space Complex (TTMTR). Payload-class satellites include a variety of spacecraft equipped with specific instruments for various scientific and technological missions. These include communications satellites like Starlink; space stations such as the ISS; scientific satellites like the Hubble; Earth observation satellites from companies like Planet Labs, Umbra, and HawkEye 360; GPS; miniature CubeSats for education and research; and military/defense satellites.

Not visible in the next 10 days
Identifier
40258, 2014-058A
Orbit
GEO
Last TLE update
2 days ago
Origin
Manufacturer
Resehetnev ISS
Mission
Operational Defense Communications
Bus & Motor
EKSPRESS-2000, Unknown motor
Mass
1,930 kg wet, ~1,800 kg dry
Launch date (UTC)
2014-09-27 (11 years ago)
Launch vehicle
PROTON-M/BRIZ-M
Launch site
Tyuratam Missile And Space Complex (TTMTR)
Object type
Payload
Rocket body
Debris
Shape & HBR
Cyl + 2 Pan + 2 Dish, 16 m
Radar Cross Section
40.926 m², Large (>1 m²)

Expand to show TLE details & history

TLE from 2 days ago
0 LUCH (OLYMP)
1 40258U 14058A   25118.91245663  .00000010  00000-0  00000-0 0  9991
2 40258   0.8229  87.7694 0001522 298.2553 157.8188  1.00416823 36841
Epoch: 2025-04-28T21:53Z
Definitive object data (Epoch: 2025-04-28T21:53:56.252Z)
Latitude
0.795°
Longitude
-1.75774°
Altitude
35,751.334 km
Speed
3.076 km/s
True Right ascension
12h 15m 23s
True Declination
0° 47' 39"
Sunlit
Object was in daylight at TLE epoch
Visualization TLE readout
Latitude
-0.73415°
Longitude
-163.6721°
Altitude
35,739.087 km
Speed
3.077 km/s
Apparent Right ascension
01h 52m 45s
Apparent Declination
-6° 02' 22"
Sunlit
Object is in daylight
Visualization observer readout
Local Sidereal Time
18:31:03
Azimuth
81.338° E
Elevation
-19.492°
Doppler factor
1
Orbital elements
Apogee altitude
35,753.467 km
Perigee altitude
35,740.644 km
Semi-major axis
42,125.193 km
Eccentricity
0.0001522
Inclination
0.8229°
RAAN
87.7694°
Arg. of periapsis
298.2553°
True anomaly
157.82538°
Mean anomaly
157.8188°
Eccentric anomaly
157.82209°
Mean motion
0.25103 °/min
BSTAR
Unknown
Orbital period
1434.08 mins
Loading historical data...
40258 neighbors
Loading maneuver chart data...
Loading SW <> Apogee altitude chart data...
Loading historical data...
Loading historical data...
Loading historical data...
Loading historical data...
Loading historical data...
Loading historical data...
Loading historical data...
Other satellites on launch #58 in the year 2014 (2014-09-27 UTC)

LUCH (OLYMP) Visibility forecast

Observer location: undefined°, undefined°

LUCH (OLYMP) is not visible in the next 10 days
Span
Click to sort rows by Start time (UTC) header in descending order
Start Az.
Max El. time (UTC)
Max El. Az.
Max El.
End time (UTC)
End Az.
|